Kezdőlap
METAR-TAF:

METAR-TAF

Repülőterek :

Owatonna Degner Regional Airport

Owatonna, Minnesota, Amerikai Egyesült Államok

földrajzi szélesség: 44-07N, földrajzi hosszúság: 093-15W, magasság: 350 m

Jelenlegi meteorológiai megfigyelések

A jelentés 26 perccel ezelõtt készült, 11:33 UTC
Szélcsend
Hőmérséklet -2°C
Páratartalom 93%
Légköri nyomás 1018 hPa
Látótávolság: 16.1 km
Derült ég

METAR: KOWA 231133Z AUTO 00000KT 10SM CLR M02/M03 A3007 RMK AO2

Idő: 06:59 (11:59 UTC)


TAF: hiányzik

Meteorológiai megfigyelések és előrejelzések több, mint 4000 repülőtéren (METAR és TAF jelentéseket).

A térképen piros és sárga pontok jelzik az elérhető meteorológiai állomásokat.

Mozgassa az egeret a pont fölött, hogy megjelenjen az állomás neve.

Azután kattintson az időjárási megfigyelések és előrejelzések megtekintéséhez.

A térkép megváltoztatása: kattintson a fekete keresztel jelölt zöld gombra ráközelítéshez, a vonallal jelölt zöld gombra távolításhoz, vagy a zöld nyilakra a szomszédos térképek eléréséhez.


METAR-TAF: